period_start,C,m1,H,J0,J1,J2,J3,J4,J5,JA,JB,JC,JD,JJ,JK,JN,#
2015-04-04 00:00:37,0.08,3.36,0.00,24.67,28.42,31.42,4.93,28.43,1035.17,2025.03,2228.51,2499.95,2671.53,349.92,351.85,23.79,0000 0000 0000 0000 000000
2015-04-04 00:05:38,0.12,3.36,0.00,24.62,28.42,31.39,4.82,28.48,1035.17,2025.07,2227.57,2499.21,2671.00,350.07,352.21,23.82,0000 0000 0000 0000 000000
2015-04-04 00:10:40,0.08,3.36,0.00,24.60,28.42,31.36,4.79,28.44,1035.17,2025.10,2226.69,2499.00,2670.47,349.84,352.07,23.85,0000 0000 0000 0000 000000
2015-04-04 00:15:41,0.12,3.37,0.00,24.63,28.42,31.36,4.83,28.48,1035.17,2025.28,2225.77,2498.56,2669.99,350.34,352.37,23.88,0000 0000 0000 0000 000000
2015-04-04 00:20:42,0.08,3.37,0.00,24.72,28.42,31.37,4.90,28.64,1035.17,2025.12,2224.80,2498.00,2669.19,350.34,352.32,23.91,0000 0000 0000 0000 000000
2015-04-04 00:25:44,0.09,3.37,0.00,24.78,28.42,31.33,4.82,28.38,1035.17,2025.10,2223.92,2497.39,2668.88,349.78,351.73,23.94,0000 0000 0000 0000 000000
2015-04-04 00:30:45,0.08,3.38,0.00,24.85,28.42,31.31,4.94,28.47,1035.17,2025.11,2222.98,2497.00,2668.10,350.69,352.63,23.97,0000 0000 0000 0000 000000
2015-04-04 00:35:46,0.13,3.38,0.00,24.89,28.42,31.26,4.78,28.37,1035.17,2025.16,2222.01,2496.57,2667.69,349.58,351.56,23.99,0000 0000 0000 0000 000000
2015-04-04 00:40:48,0.08,3.38,0.00,24.85,28.41,31.32,4.82,28.16,1035.17,2025.15,2221.03,2496.01,2667.02,350.27,352.01,24.02,0000 0000 0000 0000 000000
2015-04-04 00:45:49,0.12,3.38,0.00,24.76,28.40,31.29,4.81,28.43,1035.17,2025.19,2220.07,2495.82,2666.47,349.58,351.66,24.05,0000 0000 0000 0000 000000
2015-04-04 00:50:50,0.07,3.39,0.00,24.65,28.40,31.26,4.82,28.23,1035.17,2025.17,2219.05,2495.07,2665.97,349.81,351.75,24.08,0000 0000 0000 0000 000000
2015-04-04 00:55:51,0.13,3.39,0.00,24.56,28.39,31.24,4.91,28.51,1035.17,2025.37,2218.06,2494.94,2665.31,350.30,352.41,24.11,0000 0000 0000 0000 000000
2015-04-04 01:00:52,0.12,3.39,0.00,24.50,28.37,31.22,4.90,28.33,1035.15,2025.32,2217.06,2494.14,2664.92,350.24,352.48,24.14,0000 0000 0000 0000 000000
2015-04-04 01:05:54,0.10,3.40,0.00,24.59,28.37,31.25,4.82,28.33,1035.13,2025.47,2216.10,2493.99,2664.13,349.56,351.69,24.17,0000 0000 0000 0000 000000
2015-04-04 01:10:55,0.14,3.40,0.00,24.85,28.37,31.24,4.89,28.31,1035.16,2025.59,2215.15,2493.28,2663.78,350.46,352.44,24.20,0000 0000 0000 0000 000000
2015-04-04 01:15:56,0.14,3.40,0.00,24.93,28.37,31.25,4.90,28.46,1035.16,2025.80,2214.18,2492.99,2663.05,350.22,351.93,24.23,0000 0000 0000 0000 000000
2015-04-04 01:20:57,0.11,3.41,0.00,24.93,28.37,31.26,4.84,28.42,1035.16,2025.86,2213.26,2492.43,2662.66,349.91,351.73,24.26,0000 0000 0000 0000 000000
2015-04-04 01:25:58,0.09,3.41,0.00,24.86,28.37,31.28,4.81,28.43,1035.16,2025.90,2212.33,2492.01,2662.02,349.92,351.76,24.29,0000 0000 0000 0000 000000
2015-04-04 01:30:59,0.11,3.41,0.00,24.81,28.36,31.22,4.91,28.52,1035.16,2025.95,2211.43,2491.69,2661.66,350.30,352.08,24.32,0000 0000 0000 0000 000000
2015-04-04 01:36:01,0.09,3.42,0.00,24.88,28.35,31.19,4.84,28.53,1035.16,2025.96,2210.48,2491.03,2661.02,350.29,352.06,24.35,0000 0000 0000 0000 000000
2015-04-04 01:41:02,0.10,3.42,0.00,24.93,28.35,31.19,4.90,28.50,1035.16,2025.98,2209.57,2490.79,2660.52,350.18,351.82,24.38,0000 0000 0000 0000 000000
2015-04-04 01:46:03,0.09,3.42,0.00,24.91,28.35,31.16,4.89,28.67,1035.16,2025.98,2208.55,2490.05,2660.00,350.40,352.23,24.40,0000 0000 0000 0000 000000
2015-04-04 01:51:05,0.12,3.43,0.00,24.89,28.34,31.18,4.86,28.71,1035.15,2025.97,2207.48,2489.74,2659.29,350.15,351.85,24.43,0000 0000 0000 0000 000000
2015-04-04 01:56:06,0.08,3.43,0.00,24.92,28.33,31.17,4.82,28.56,1035.15,2025.99,2206.66,2489.09,2658.95,350.29,352.08,24.46,0000 0000 0000 0000 000000
2015-04-04 02:01:07,0.09,3.43,0.00,24.87,28.32,31.14,4.93,28.77,1035.15,2025.99,2205.71,2488.93,2658.18,350.15,351.95,24.49,0000 0000 0000 0000 000000
2015-04-04 02:06:08,0.11,3.44,0.00,24.84,28.32,31.12,4.81,28.68,1035.16,2025.98,2204.72,2488.18,2657.86,349.96,351.70,24.52,0000 0000 0000 0000 000000
2015-04-04 02:11:09,0.07,3.44,0.00,24.87,28.32,31.09,4.77,28.63,1035.16,2025.99,2203.80,2487.98,2657.09,349.49,351.20,24.55,0000 0000 0000 0000 000000
2015-04-04 02:16:11,0.12,3.44,0.00,24.91,28.30,31.10,4.84,28.59,1035.17,2025.99,2202.79,2487.39,2656.80,349.80,351.61,24.58,0000 0000 0000 0000 000000
2015-04-04 02:21:13,0.07,3.44,0.00,24.90,28.30,31.07,4.83,28.74,1035.15,2025.99,2201.85,2487.01,2656.07,349.82,351.58,24.61,0000 0000 0000 0000 000000
2015-04-04 02:26:14,0.12,3.45,0.00,24.89,28.30,31.05,4.81,28.53,1035.17,2025.99,2200.89,2486.50,2655.74,349.95,351.51,24.64,0000 0000 0000 0000 000000
2015-04-04 02:31:15,0.08,3.45,0.00,24.93,28.30,31.03,4.86,28.69,1035.16,2025.99,2199.92,2486.01,2655.04,350.35,352.27,24.67,0000 0000 0000 0000 000000
2015-04-04 02:36:16,0.12,3.45,0.00,24.98,28.28,31.00,4.78,28.47,1035.17,2025.99,2198.92,2485.61,2654.45,349.60,351.45,24.70,0000 0000 0000 0000 000000
2015-04-04 02:41:18,0.07,3.46,0.00,25.00,28.27,31.03,4.79,28.59,1035.17,2025.99,2197.99,2485.02,2653.97,349.54,351.23,24.73,0000 0000 0000 0000 000000
2015-04-04 02:46:19,0.10,3.46,0.00,24.93,28.27,31.03,4.91,28.74,1035.17,2025.99,2197.05,2484.75,2653.28,350.43,352.14,24.76,0000 0000 0000 0000 000000
2015-04-04 02:51:21,0.09,3.46,0.00,24.94,28.26,31.00,4.83,28.59,1035.17,2025.99,2196.09,2484.04,2652.92,349.54,351.29,24.79,0000 0000 0000 0000 000000
2015-04-04 02:56:22,0.08,3.47,0.00,25.00,28.25,30.98,4.81,28.57,1035.17,2025.99,2195.27,2483.90,2652.16,350.21,351.86,24.82,0000 0000 0000 0000 000000
2015-04-04 03:01:23,0.12,3.47,0.00,25.00,28.25,30.97,4.84,28.58,1035.17,2026.00,2194.34,2483.13,2651.84,350.51,352.25,24.84,0000 0000 0000 0000 000000
2015-04-04 03:06:25,0.07,3.47,0.00,25.03,28.25,30.95,4.77,28.44,1035.17,2026.00,2193.43,2482.97,2651.07,350.15,351.96,24.87,0000 0000 0000 0000 000000
2015-04-04 03:11:26,0.12,3.47,0.00,25.04,28.25,30.95,4.86,28.64,1035.17,2026.00,2192.57,2482.24,2650.79,350.03,351.26,24.90,0000 0000 0000 0000 000000
2015-04-04 03:16:27,0.06,3.48,0.00,25.02,28.23,30.96,4.79,28.57,1035.17,2026.02,2191.82,2481.99,2650.08,349.71,351.21,24.93,0000 0000 0000 0000 000000
2015-04-04 03:21:29,0.10,3.48,0.00,25.03,28.22,30.97,4.92,28.55,1035.17,2026.04,2190.94,2481.60,2649.76,350.89,352.49,24.96,0000 0000 0000 0000 000000
2015-04-04 03:26:30,0.09,3.48,0.00,24.99,28.22,30.96,4.89,28.60,1035.17,2026.06,2190.08,2481.02,2649.06,350.24,352.15,24.99,0000 0000 0000 0000 000000
2015-04-04 03:31:31,0.06,3.48,0.00,25.00,28.20,30.94,4.83,28.59,1035.17,2026.13,2189.39,2480.96,2648.93,349.91,351.43,25.02,0000 0000 0000 0000 000000
2015-04-04 03:36:32,0.14,3.49,0.00,25.03,28.20,30.93,4.84,28.60,1035.17,2026.18,2188.74,2480.26,2648.17,350.71,352.33,25.05,0000 0000 0000 0000 000000
2015-04-04 03:41:33,0.09,3.49,0.00,25.02,28.19,30.91,4.85,28.57,1035.17,2026.43,2187.94,2480.00,2647.97,349.96,351.66,25.08,0000 0000 0000 0000 000000
2015-04-04 03:46:35,0.13,3.49,0.00,25.06,28.17,30.91,4.91,28.77,1035.17,2026.65,2187.08,2479.85,2647.29,350.38,352.11,25.11,0000 0000 0000 0000 000000
2015-04-04 03:51:36,0.12,3.50,0.00,25.05,28.17,30.88,4.83,28.55,1035.17,2026.73,2186.26,2479.07,2646.99,350.31,351.89,25.14,0000 0000 0000 0000 000000
2015-04-04 03:56:37,0.08,3.50,0.00,25.06,28.17,30.85,4.80,28.55,1035.17,2026.92,2185.70,2478.97,2646.36,350.38,351.98,25.17,0000 0000 0000 0000 000000
2015-04-04 04:01:38,0.08,3.50,0.00,25.08,28.16,30.88,4.84,28.65,1035.17,2026.92,2184.95,2478.35,2645.99,350.29,351.93,25.20,0000 0000 0000 0000 000000
2015-04-04 04:06:40,0.10,3.51,0.00,25.09,28.15,30.87,4.79,28.64,1035.17,2026.95,2184.04,2478.00,2645.39,349.62,351.21,25.22,0000 0000 0000 0000 000000
2015-04-04 04:11:41,0.09,3.51,0.00,25.10,28.15,30.85,4.91,28.94,1035.17,2026.97,2183.10,2477.64,2645.00,350.71,352.15,25.25,0000 0000 0000 0000 000000
2015-04-04 04:16:42,0.09,3.51,0.00,25.14,28.12,30.83,4.87,28.73,1035.17,2026.98,2182.62,2477.05,2644.52,349.33,350.96,25.28,0000 0000 0000 0000 000000
2015-04-04 04:21:43,0.02,3.51,0.00,25.11,28.12,30.83,4.88,28.75,1035.17,2026.98,2181.89,2476.97,2644.00,350.68,352.29,25.31,0000 0000 0000 0000 000000
2015-04-04 04:26:45,0.13,3.52,0.00,25.15,28.11,30.84,4.77,28.69,1035.17,2026.98,2181.06,2476.27,2643.54,349.58,350.94,25.34,0000 0000 0000 0000 000000
2015-04-04 04:31:46,0.06,3.52,0.00,25.14,28.10,30.81,4.91,28.81,1035.17,2026.99,2180.36,2476.00,2643.02,350.33,351.80,25.37,0000 0000 0000 0000 000000
2015-04-04 04:36:47,0.06,3.52,0.00,25.15,28.10,30.80,4.74,28.63,1035.17,2026.99,2179.64,2475.84,2642.79,350.57,351.83,25.40,0000 0000 0000 0000 000000
2015-04-04 04:41:48,0.10,3.52,0.00,25.16,28.08,30.76,4.75,28.69,1035.15,2026.99,2178.90,2475.06,2642.05,349.75,351.09,25.43,0000 0000 0000 0000 000000
2015-04-04 04:46:50,0.06,3.53,0.00,25.16,28.07,30.77,4.77,28.60,1035.12,2026.99,2178.02,2474.98,2641.83,349.99,351.46,25.46,0000 0000 0000 0000 000000
2015-04-04 04:51:51,0.13,3.53,0.00,25.20,28.06,30.75,4.86,28.75,1035.11,2026.99,2177.14,2474.31,2641.08,350.04,351.37,25.49,0000 0000 0000 0000 000000
2015-04-04 04:56:52,0.05,3.53,0.00,25.19,28.05,30.73,4.85,28.61,1035.11,2026.99,2176.56,2474.00,2640.92,350.32,351.73,25.52,0000 0000 0000 0000 000000
2015-04-04 05:01:53,0.09,3.53,0.00,25.25,28.05,30.71,4.87,28.73,1035.11,2027.00,2175.78,2473.82,2640.18,350.03,351.43,25.55,0000 0000 0000 0000 000000
2015-04-04 05:06:54,0.07,3.54,0.00,25.22,28.04,30.69,4.80,28.58,1035.13,2027.00,2175.04,2473.08,2639.95,350.18,351.53,25.58,0000 0000 0000 0000 000000
2015-04-04 05:11:56,0.08,3.54,0.00,25.21,28.02,30.71,4.78,28.67,1035.14,2027.01,2174.39,2472.99,2639.28,349.66,351.09,25.61,0000 0000 0000 0000 000000
2015-04-04 05:16:57,0.09,3.54,0.00,25.22,28.02,30.72,4.82,28.73,1035.13,2027.03,2173.62,2472.53,2638.98,349.80,351.27,25.64,0000 0000 0000 0000 000000
2015-04-04 05:21:58,0.07,3.54,0.00,25.24,28.01,30.69,4.84,28.75,1035.13,2027.05,2172.96,2472.01,2638.30,350.23,351.55,25.66,0000 0000 0000 0000 000000
2015-04-04 05:27:00,0.06,3.55,0.00,25.24,28.00,30.68,4.92,28.87,1035.10,2027.04,2172.12,2471.89,2638.00,349.55,350.98,25.69,0000 0000 0000 0000 000000
2015-04-04 05:32:01,0.14,3.55,0.00,25.30,28.00,30.68,4.86,28.74,1035.01,2027.05,2171.38,2471.14,2637.47,350.13,351.37,25.72,0000 0000 0000 0000 000000
2015-04-04 05:37:02,0.06,3.55,0.00,25.23,27.98,30.67,4.91,28.68,1035.01,2027.14,2170.73,2470.99,2637.00,350.19,351.63,25.75,0000 0000 0000 0000 000000
2015-04-04 05:42:04,0.13,3.55,0.00,25.27,27.97,30.66,4.78,28.69,1034.89,2027.29,2169.95,2470.61,2636.71,350.37,351.50,25.78,0000 0000 0000 0000 000000
2015-04-04 05:47:05,0.08,3.56,0.00,25.27,27.97,30.65,4.84,28.73,1034.78,2027.35,2169.13,2470.03,2636.03,350.61,351.74,25.81,0000 0000 0000 0000 000000
2015-04-04 05:52:06,0.10,3.56,0.00,25.31,27.95,30.64,4.78,28.73,1034.73,2027.32,2168.29,2469.89,2635.57,349.74,350.92,25.84,0000 0000 0000 0000 000000
2015-04-04 05:57:07,0.17,3.56,0.00,25.27,27.95,30.61,4.76,28.73,1034.72,2027.66,2167.67,2469.15,2635.02,350.21,351.32,25.87,0000 0000 0000 0000 000000
2015-04-04 06:02:09,0.03,3.57,0.00,25.28,27.94,30.60,4.83,28.66,1034.72,2027.78,2167.01,2468.99,2634.80,349.76,350.98,25.90,0000 0000 0000 0000 000000
2015-04-04 06:07:10,0.13,3.57,0.00,25.31,27.92,30.53,4.88,28.63,1034.71,2027.92,2166.21,2468.69,2634.09,350.19,350.89,25.93,0000 0000 0000 0000 000000
2015-04-04 06:12:11,0.09,3.57,0.00,25.37,27.92,30.52,4.89,28.86,1034.70,2027.95,2165.53,2468.04,2633.91,350.15,351.13,25.96,0000 0000 0000 0000 000000
2015-04-04 06:17:12,0.05,3.58,0.00,25.31,27.91,30.50,4.75,28.66,1034.70,2027.94,2164.90,2467.99,2633.13,349.56,350.78,25.99,0000 0000 0000 0000 000000
2015-04-04 06:22:13,0.10,3.58,0.00,25.32,27.90,30.53,4.79,28.67,1034.72,2027.97,2164.06,2467.48,2632.99,350.08,351.05,26.02,0000 0000 0000 0000 000000
2015-04-04 06:27:15,0.09,3.58,0.00,25.32,27.90,30.53,4.86,28.82,1034.72,2027.99,2163.31,2467.01,2632.42,350.01,351.32,26.05,0000 0000 0000 0000 000000
2015-04-04 06:32:16,0.06,3.58,0.00,25.32,27.87,30.54,4.86,28.73,1034.79,2027.99,2162.56,2466.86,2632.00,350.38,351.46,26.07,0000 0000 0000 0000 000000
2015-04-04 06:37:17,0.11,3.59,0.00,25.34,27.87,30.40,4.75,28.73,1034.94,2027.99,2161.84,2466.09,2631.36,350.14,351.32,26.10,0000 0000 0000 0000 000000
2015-04-04 06:42:18,0.04,3.59,0.00,25.32,27.86,30.46,4.79,28.62,1034.99,2027.99,2161.05,2465.99,2631.01,349.94,351.30,26.13,0000 0000 0000 0000 000000
2015-04-04 06:47:20,0.10,3.59,0.00,25.33,27.85,30.50,4.87,28.75,1034.81,2027.99,2160.40,2465.65,2630.69,349.94,351.08,26.16,0000 0000 0000 0000 000000
2015-04-04 06:52:21,0.08,3.59,0.00,25.39,27.84,30.44,4.79,28.76,1034.79,2027.99,2159.59,2465.02,2630.03,350.17,351.12,26.19,0000 0000 0000 0000 000000
2015-04-04 06:57:22,0.04,3.59,0.00,25.35,27.82,30.40,4.78,28.67,1034.84,2027.99,2158.91,2464.96,2629.75,349.45,350.50,26.22,0000 0000 0000 0000 000000
2015-04-04 07:02:24,0.13,3.60,0.00,25.36,27.82,30.43,4.83,28.82,1034.95,2028.00,2158.10,2464.35,2629.06,350.52,351.53,26.25,0000 0000 0000 0000 000000
2015-04-04 07:07:25,0.06,3.60,0.00,25.39,27.81,30.42,4.79,28.67,1035.07,2028.00,2157.41,2464.01,2628.91,349.87,351.29,26.28,0000 0000 0000 0000 000000
2015-04-04 07:12:26,0.10,3.60,0.00,25.42,27.80,30.34,4.76,28.68,1034.93,2028.00,2156.59,2463.71,2628.12,349.94,350.95,26.31,0000 0000 0000 0000 000000
2015-04-04 07:17:28,0.07,3.61,0.00,25.38,27.80,30.35,4.78,28.60,1034.86,2028.01,2155.83,2463.05,2627.95,349.51,350.80,26.34,0000 0000 0000 0000 000000
2015-04-04 07:22:29,0.07,3.61,0.00,25.43,27.78,30.27,4.83,28.68,1034.89,2028.03,2155.03,2462.98,2627.26,350.25,351.22,26.37,0000 0000 0000 0000 000000
2015-04-04 07:27:30,0.10,3.61,0.00,25.43,27.77,30.24,4.80,28.78,1035.01,2028.04,2154.18,2462.32,2627.00,350.06,351.23,26.40,0000 0000 0000 0000 000000
2015-04-04 07:32:32,0.09,3.61,0.00,25.37,27.76,30.30,4.87,28.73,1035.12,2028.06,2153.55,2462.01,2626.45,349.99,351.26,26.43,0000 0000 0000 0000 000000
2015-04-04 07:37:33,0.07,3.62,0.00,25.39,27.75,30.40,4.78,28.57,1035.09,2028.13,2152.80,2461.86,2626.01,350.02,350.98,26.46,0000 0000 0000 0000 000000
2015-04-04 07:42:35,0.13,3.62,0.00,25.42,27.75,30.31,4.82,28.70,1035.13,2028.23,2152.00,2461.13,2625.55,349.78,350.89,26.48,0000 0000 0000 0000 000000
2015-04-04 07:47:36,0.04,3.62,0.00,25.44,27.73,30.31,4.75,28.53,1035.16,2028.17,2151.16,2460.96,2625.01,350.22,351.27,26.51,0000 0000 0000 0000 000000
2015-04-04 07:52:37,0.19,3.62,0.00,25.45,27.72,30.24,4.80,28.76,1035.16,2028.35,2150.24,2460.44,2624.61,350.13,351.20,26.54,0000 0000 0000 0000 000000
2015-04-04 07:57:38,0.09,3.63,0.00,25.43,27.72,30.27,4.83,28.81,1035.17,2028.52,2149.76,2460.02,2624.02,350.22,351.40,26.57,0000 0000 0000 0000 000000
2015-04-04 08:02:40,0.04,3.63,0.00,25.44,27.70,30.28,4.91,28.58,1035.17,2028.63,2148.99,2459.90,2623.65,349.96,351.01,26.60,0000 0000 0000 0000 000000
2015-04-04 08:07:41,0.18,3.63,0.00,25.44,27.70,30.22,4.78,28.65,1035.17,2028.76,2148.11,2459.15,2623.03,350.06,351.22,26.63,0000 0000 0000 0000 000000
2015-04-04 08:12:42,0.05,3.64,0.00,25.47,27.68,30.18,4.73,28.58,1035.17,2028.91,2147.42,2459.00,2622.99,349.73,350.94,26.66,0000 0000 0000 0000 000000
2015-04-04 08:17:43,0.12,3.64,0.00,25.43,27.67,30.18,4.82,28.76,1035.17,2028.92,2146.66,2458.63,2622.37,350.05,351.18,26.69,0000 0000 0000 0000 000000
2015-04-04 08:22:45,0.05,3.64,0.00,25.47,27.67,30.30,4.86,28.77,1035.18,2028.96,2145.96,2458.04,2622.01,350.42,351.50,26.72,0000 0000 0000 0000 000000
2015-04-04 08:27:46,0.07,3.65,0.00,25.43,27.65,30.25,4.90,28.72,1035.19,2028.98,2145.16,2457.99,2621.62,350.50,351.75,26.75,0000 0000 0000 0000 000000
2015-04-04 08:32:47,0.11,3.65,0.00,25.48,27.65,30.28,4.80,28.71,1035.22,2028.99,2144.61,2457.50,2621.01,349.93,351.04,26.78,0000 0000 0000 0000 000000
2015-04-04 08:37:49,0.04,3.65,0.00,25.46,27.64,30.23,4.81,28.71,1035.31,2028.99,2143.89,2457.01,2620.78,349.77,350.85,26.81,0000 0000 0000 0000 000000
2015-04-04 08:42:50,0.08,3.65,0.00,25.45,27.62,30.19,4.73,28.84,1035.54,2028.99,2143.02,2456.85,2620.04,349.79,350.95,26.84,0000 0000 0000 0000 000000
2015-04-04 08:47:51,0.11,3.66,0.00,25.43,27.62,30.21,4.80,28.73,1035.63,2028.99,2142.15,2456.07,2619.85,349.76,351.26,26.87,0000 0000 0000 0000 000000
2015-04-04 08:52:52,0.07,3.66,0.00,25.44,27.60,30.20,4.83,28.82,1035.61,2028.99,2141.42,2455.98,2619.08,349.92,351.29,26.89,0000 0000 0000 0000 000000
2015-04-04 08:57:53,0.05,3.66,0.00,25.43,27.60,30.12,4.84,28.57,1035.65,2028.99,2140.89,2455.70,2618.96,350.65,351.94,26.92,0000 0000 0000 0000 000000
2015-04-04 09:02:55,0.11,3.66,0.00,25.42,27.59,30.16,4.80,28.72,1035.66,2028.99,2140.06,2455.04,2618.33,350.08,351.50,26.95,0000 0000 0000 0000 000000
2015-04-04 09:07:56,0.05,3.66,0.00,25.43,27.57,30.20,4.85,28.77,1035.66,2029.00,2139.38,2454.96,2618.00,350.08,351.48,26.98,0000 0000 0000 0000 000000
2015-04-04 09:12:57,0.12,3.67,0.00,25.44,27.57,30.21,4.83,28.63,1035.66,2029.00,2138.68,2454.37,2617.42,350.52,351.83,27.01,0000 0000 0000 0000 000000
2015-04-04 09:17:59,0.04,3.67,0.00,25.44,27.56,30.20,4.80,28.66,1035.66,2029.00,2137.94,2454.00,2617.01,349.99,351.36,27.04,0000 0000 0000 0000 000000
2015-04-04 09:23:00,0.10,3.67,0.00,25.42,27.55,30.24,4.82,28.73,1035.65,2029.00,2137.10,2453.73,2616.54,350.46,351.57,27.07,0000 0000 0000 0000 000000
2015-04-04 09:28:01,0.09,3.68,0.00,25.41,27.55,30.25,4.81,28.81,1035.65,2029.01,2136.53,2453.06,2616.01,349.72,351.20,27.10,0000 0000 0000 0000 000000
2015-04-04 09:33:03,0.03,3.68,0.00,25.41,27.55,30.24,4.82,28.70,1035.66,2029.01,2135.93,2453.00,2615.82,349.92,351.21,27.13,0000 0000 0000 0000 000000
2015-04-04 09:38:04,0.13,3.68,0.00,25.37,27.54,30.20,4.84,28.59,1035.66,2029.02,2135.09,2452.51,2615.10,350.52,351.89,27.16,0000 0000 0000 0000 000000
2015-04-04 09:43:05,0.07,3.68,0.00,25.35,27.53,30.25,4.84,28.73,1035.67,2029.02,2134.30,2452.02,2614.82,350.72,352.03,27.19,0000 0000 0000 0000 000000
2015-04-04 09:48:06,0.08,3.68,0.00,25.37,27.52,30.23,4.85,28.81,1035.68,2029.03,2133.62,2451.84,2614.08,349.56,350.99,27.22,0000 0000 0000 0000 000000
2015-04-04 09:53:08,0.08,3.69,0.00,25.34,27.52,30.23,4.87,28.74,1035.67,2029.06,2132.95,2451.12,2613.94,349.80,351.21,27.25,0000 0000 0000 0000 000000
2015-04-04 09:58:09,0.08,3.69,0.00,25.35,27.52,30.24,4.86,28.75,1035.66,2029.08,2132.13,2451.00,2613.15,350.31,351.85,27.28,0000 0000 0000 0000 000000
2015-04-04 10:03:10,0.08,3.69,0.00,25.39,27.52,30.22,4.85,28.92,1035.67,2029.09,2131.61,2450.67,2612.98,349.84,351.25,27.30,0000 0000 0000 0000 000000
2015-04-04 10:08:12,0.08,3.70,0.00,25.36,27.52,30.26,4.82,28.75,1035.66,2029.08,2130.91,2450.02,2612.19,350.13,351.53,27.33,0000 0000 0000 0000 000000
2015-04-04 10:13:13,0.06,3.70,0.00,25.35,27.52,30.25,4.84,28.57,1035.68,2029.10,2130.08,2449.94,2611.98,350.20,351.44,27.36,0000 0000 0000 0000 000000
2015-04-04 10:18:15,0.14,3.70,0.00,25.36,27.52,30.26,4.84,28.89,1035.67,2029.11,2129.49,2449.24,2611.36,350.07,351.35,27.39,0000 0000 0000 0000 000000
2015-04-04 10:23:16,0.04,3.70,0.00,25.34,27.52,30.25,4.84,28.82,1035.68,2029.12,2128.79,2449.00,2610.98,349.69,350.99,27.42,0000 0000 0000 0000 000000
2015-04-04 10:28:17,0.11,3.71,0.00,25.37,27.52,30.24,4.75,28.73,1035.67,2029.14,2128.02,2448.58,2610.40,350.56,352.05,27.45,0000 0000 0000 0000 000000
2015-04-04 10:33:18,0.08,3.71,0.00,25.33,27.52,30.27,4.81,28.75,1035.67,2029.13,2127.21,2448.03,2610.01,349.32,350.75,27.48,0000 0000 0000 0000 000000
2015-04-04 10:38:20,0.08,3.71,0.00,25.31,27.52,30.26,4.80,28.72,1035.66,2029.15,2126.49,2447.96,2609.41,349.79,351.18,27.51,0000 0000 0000 0000 000000
2015-04-04 10:43:21,0.08,3.71,0.00,25.34,27.52,30.26,4.87,28.90,1035.66,2029.17,2125.86,2447.29,2609.00,350.24,351.54,27.54,0000 0000 0000 0000 000000
2015-04-04 10:48:22,0.06,3.72,0.00,25.34,27.51,30.27,4.83,28.87,1035.66,2029.18,2125.07,2447.00,2608.59,350.01,351.42,27.57,0000 0000 0000 0000 000000
2015-04-04 10:53:24,0.10,3.72,0.00,25.26,27.50,30.28,4.84,28.77,1035.66,2029.07,2124.39,2446.63,2608.01,349.91,351.55,27.60,0000 0000 0000 0000 000000
2015-04-04 10:58:25,0.08,3.72,0.00,25.32,27.50,30.27,4.77,28.82,1035.66,2029.17,2123.87,2446.03,2607.69,349.93,351.37,27.63,0000 0000 0000 0000 000000
2015-04-04 11:03:26,0.10,3.72,0.00,25.29,27.50,30.26,4.76,28.71,1035.64,2029.36,2123.07,2445.98,2607.05,349.24,350.95,27.66,0000 0000 0000 0000 000000
2015-04-04 11:08:27,0.08,3.73,0.00,25.30,27.50,30.25,4.82,28.59,1035.63,2029.12,2122.34,2445.24,2606.62,349.98,351.42,27.69,0000 0000 0000 0000 000000
2015-04-04 11:13:29,0.06,3.73,0.00,25.32,27.51,30.26,4.75,28.77,1035.64,2029.07,2121.64,2444.98,2606.01,349.58,351.13,27.72,0000 0000 0000 0000 000000
2015-04-04 11:18:30,0.10,3.73,0.00,25.29,27.51,30.27,4.76,28.69,1035.63,2029.04,2120.91,2444.39,2605.49,349.68,351.04,27.74,0000 0000 0000 0000 000000
2015-04-04 11:23:32,0.07,3.73,0.00,25.27,27.51,30.28,4.85,28.78,1035.61,2029.08,2120.14,2444.00,2605.01,350.07,351.64,27.77,0000 0000 0000 0000 000000
2015-04-04 11:28:33,0.05,3.73,0.00,25.26,27.51,30.28,4.80,28.84,1035.48,2029.04,2119.65,2443.90,2604.76,349.80,351.29,27.80,0000 0000 0000 0000 000000
2015-04-04 11:33:34,0.10,3.74,0.00,25.27,27.51,30.26,4.84,28.59,1035.41,2029.06,2119.00,2443.18,2604.05,350.13,351.73,27.83,0000 0000 0000 0000 000000
2015-04-04 11:38:35,0.05,3.74,0.00,25.31,27.52,30.28,4.78,28.66,1035.25,2029.04,2118.22,2442.99,2603.88,349.89,351.11,27.86,0000 0000 0000 0000 000000
2015-04-04 11:43:37,0.10,3.74,0.00,25.26,27.52,30.28,4.74,28.77,1035.19,2029.09,2117.72,2442.70,2603.16,349.37,351.12,27.89,0000 0000 0000 0000 000000
2015-04-04 11:48:38,0.07,3.74,0.00,25.27,27.52,30.27,4.84,28.64,1035.17,2029.03,2116.90,2442.03,2602.85,350.59,351.69,27.92,0000 0000 0000 0000 000000
2015-04-04 11:53:39,0.08,3.75,0.00,25.25,27.52,30.29,4.80,28.73,1035.17,2029.04,2116.10,2441.90,2602.14,349.54,350.98,27.95,0000 0000 0000 0000 000000
2015-04-04 11:58:40,0.09,3.75,0.00,25.30,27.52,30.32,4.85,28.84,1035.17,2029.07,2115.75,2441.16,2601.99,349.68,351.13,27.98,0000 0000 0000 0000 000000
2015-04-04 12:03:41,0.06,3.75,0.00,25.22,27.52,30.31,4.82,28.86,1035.17,2029.06,2115.03,2441.01,2601.41,350.37,351.81,28.01,0000 0000 0000 0000 000000
2015-04-04 12:08:42,0.07,3.75,0.00,25.23,27.52,30.29,4.76,28.66,1035.17,2029.05,2114.38,2440.81,2601.00,350.04,351.30,28.04,0000 0000 0000 0000 000000
2015-04-04 12:13:43,0.08,3.76,0.00,25.22,27.52,30.29,4.80,28.77,1035.17,2029.04,2113.96,2440.07,2600.53,350.08,351.42,28.07,0000 0000 0000 0000 000000
2015-04-04 12:18:45,0.05,3.76,0.00,25.20,27.52,30.28,4.84,28.85,1035.17,2029.03,2113.18,2439.98,2600.02,350.10,351.62,28.10,0000 0000 0000 0000 000000
2015-04-04 12:23:46,0.11,3.76,0.00,25.25,27.52,30.31,4.74,28.73,1035.17,2029.02,2112.70,2439.45,2599.73,349.57,351.11,28.12,0000 0000 0000 0000 000000
2015-04-04 12:28:47,0.06,3.76,0.00,25.16,27.53,30.31,4.85,28.64,1035.17,2029.05,2112.02,2439.02,2599.06,350.45,351.60,28.15,0000 0000 0000 0000 000000
2015-04-04 12:33:48,0.05,3.76,0.00,25.20,27.54,30.30,4.78,28.63,1035.18,2029.05,2111.47,2438.96,2598.94,349.77,351.28,28.18,0000 0000 0000 0000 000000
2015-04-04 12:38:50,0.09,3.77,0.00,25.20,27.55,30.30,4.86,28.60,1035.18,2029.03,2111.00,2438.35,2598.21,350.27,351.67,28.21,0000 0000 0000 0000 000000
2015-04-04 12:43:51,0.05,3.77,0.00,25.20,27.55,30.30,4.84,28.73,1035.17,2029.01,2110.46,2438.00,2597.98,350.18,351.79,28.24,0000 0000 0000 0000 000000
2015-04-04 12:48:52,0.08,3.77,0.00,25.15,27.55,30.31,4.78,28.91,1035.17,2029.01,2109.94,2437.65,2597.33,350.13,351.61,28.27,0000 0000 0000 0000 000000
2015-04-04 12:53:53,0.07,3.77,0.00,25.15,27.55,30.31,4.76,28.66,1035.16,2029.01,2109.27,2437.06,2597.00,349.56,351.03,28.30,0000 0000 0000 0000 000000
2015-04-04 12:58:54,0.03,3.77,0.00,25.14,27.56,30.31,4.83,28.73,1035.11,2029.03,2108.89,2436.98,2596.71,350.23,351.76,28.33,0000 0000 0000 0000 000000